CW8468 Weather Reports


Display with metric or nautical units.
time (UTC)temp
F
wind
direction
speed
MPH
gust
MPH
rain 1hr
in
rain 24hr
in
rain mn
in
humidity
%
barometer
mb
20260903011519 89 48 2.0 4.0 0.00 0.00 0.00 62 1012.1
20260903011005 89 87 2.0 6.0 0.00 0.00 0.00 60 1011.9
20260903010504 89 125 3.0 8.0 0.00 0.00 0.00 60 1011.5
20260903010025 89 167 4.0 8.0 0.00 0.00 0.00 58 1011.4
20260903005503 89 275 4.0 11.0 0.00 0.00 0.00 58 1011.3
20260903004518 90 353 4.0 10.0 0.00 0.00 0.00 58 1010.9
20260903004004 90 193 3.0 10.0 0.00 0.00 0.00 58 1010.7
20260903003503 90 353 4.0 11.0 0.00 0.00 0.00 57 1010.6
20260903003026 90 239 5.0 11.0 0.00 0.00 0.00 56 1010.7
20260903002503 90 191 4.0 12.0 0.00 0.00 0.00 56 1010.6
20260903002004 91 161 3.0 10.0 0.00 0.00 0.00 58 1010.5
20260903001518 91 175 3.0 9.0 0.00 0.00 0.00 57 1010.6
20260903001004 91 353 4.0 9.0 0.00 0.00 0.00 58 1010.4
20260903000503 91 353 4.0 10.0 0.00 0.00 0.00 58 1010.3
20260903000027 91 166 5.0 15.0 0.00 0.00 0.00 58 1010.2
20260902235004 92 216 3.0 11.0 0.00 0.00 0.00 58 1010.2
20260902234002 92 174 3.0 12.0 0.00 0.00 0.00 59 1010.0
20260902233502 93 146 4.0 12.0 0.00 0.00 0.00 59 1010.0
20260902233028 93 353 4.0 11.0 0.00 0.00 0.00 58 1010.1
20260902232501 93 353 4.0 11.0 0.00 0.00 0.00 57 1010.1
20260902232004 93 116 4.0 13.0 0.00 0.00 0.00 56 1010.2
20260902231517 93 353 4.0 13.0 0.00 0.00 0.00 56 1010.2
20260902231004 93 198 4.0 10.0 0.00 0.00 0.00 56 1010.1
20260902230503 93 353 4.0 10.0 0.00 0.00 0.00 56 1010.0
20260902230028 93 218 4.0 11.0 0.00 0.00 0.00 56 1010.0
20260902225503 94 118 4.0 11.0 0.00 0.00 0.00 56 1010.0
20260902225004 94 155 4.0 15.0 0.00 0.00 0.00 56 1010.1
20260902224518 94 353 5.0 15.0 0.00 0.00 0.00 55 1010.2
20260902224004 94 199 4.0 12.0 0.00 0.00 0.00 56 1010.1
20260902223504 95 222 4.0 9.0 0.00 0.00 0.00 55 1010.2
20260902223025 95 353 4.0 9.0 0.00 0.00 0.00 55 1010.1
20260902222005 95 353 4.0 14.0 0.00 0.00 0.00 54 1010.1
20260902221519 94 353 5.0 14.0 0.00 0.00 0.00 54 1010.1
20260902220502 95 139 4.0 11.0 0.00 0.00 0.00 54 1010.2
20260902220024 95 353 4.0 11.0 0.00 0.00 0.00 54 1010.2
20260902215503 95 135 4.0 10.0 0.00 0.00 0.00 54 1010.2
20260902215005 95 162 4.0 9.0 0.00 0.00 0.00 54 1010.2
20260902214003 95 353 3.0 10.0 0.00 0.00 0.00 53 1010.3
20260902213503 95 153 4.0 11.0 0.00 0.00 0.00 52 1010.3
20260902213023 96 168 4.0 11.0 0.00 0.00 0.00 50 1010.3
20260902212503 96 198 3.0 11.0 0.00 0.00 0.00 50 1010.3
20260902212004 96 177 3.0 10.0 0.00 0.00 0.00 50 1010.4
20260902211518 96 353 3.0 10.0 0.00 0.00 0.00 50 1010.5
20260902211005 95 146 3.0 11.0 0.00 0.00 0.00 50 1010.4
20260902210504 96 153 4.0 11.0 0.00 0.00 0.00 50 1010.6
20260902210026 97 250 4.0 9.0 0.00 0.00 0.00 49 1010.6
20260902205502 96 353 3.0 8.0 0.00 0.00 0.00 51 1010.6
20260902205002 96 235 3.0 10.0 0.00 0.00 0.00 51 1010.6
20260902204517 96 254 4.0 10.0 0.00 0.00 0.00 51 1010.6
20260902204003 96 138 4.0 10.0 0.00 0.00 0.00 50 1010.9
20260902203501 97 202 4.0 10.0 0.00 0.00 0.00 50 1010.9
20260902203026 96 353 3.0 9.0 0.00 0.00 0.00 51 1010.9
20260902202502 96 172 3.0 8.0 0.00 0.00 0.00 50 1010.9
20260902201516 97 145 3.0 10.0 0.00 0.00 0.00 49 1010.9
20260902201003 97 166 3.0 8.0 0.00 0.00 0.00 51 1011.0
20260902200502 96 126 3.0 8.0 0.00 0.00 0.00 51 1011.0
20260902195502 96 65 3.0 6.0 0.00 0.00 0.00 51 1011.3
20260902195002 96 153 3.0 8.0 0.00 0.00 0.00 52 1011.4
20260902194517 96 135 3.0 8.0 0.00 0.00 0.00 51 1011.6
20260902193502 96 263 3.0 8.0 0.00 0.00 0.00 52 1011.8
20260902193028 96 240 3.0 9.0 0.00 0.00 0.00 53 1011.8
20260902192004 95 353 3.0 8.0 0.00 0.00 0.00 53 1011.9
20260902191516 95 238 3.0 8.0 0.00 0.00 0.00 53 1011.9
20260902191003 95 260 3.0 8.0 0.00 0.00 0.00 53 1012.0
20260902190502 96 272 3.0 9.0 0.00 0.00 0.00 52 1012.0
20260902190028 95 235 3.0 9.0 0.00 0.00 0.00 53 1012.1
20260902185502 95 276 3.0 10.0 0.00 0.00 0.00 51 1012.2
20260902185003 95 267 3.0 10.0 0.00 0.00 0.00 53 1012.3
20260902184517 95 259 3.0 8.0 0.00 0.00 0.00 53 1012.5
20260902184005 95 247 3.0 8.0 0.00 0.00 0.00 55 1012.6
20260902183501 94 146 3.0 9.0 0.00 0.00 0.00 54 1012.6
20260902183025 94 262 3.0 9.0 0.00 0.00 0.00 56 1012.7
20260902182501 93 250 3.0 12.0 0.00 0.00 0.00 55 1012.9
20260902182002 94 239 3.0 12.0 0.00 0.00 0.00 54 1013.0
20260902181517 94 230 3.0 10.0 0.00 0.00 0.00 54 1013.0
20260902181004 93 146 3.0 10.0 0.00 0.00 0.00 54 1013.1
20260902180502 93 160 3.0 7.0 0.00 0.00 0.00 55 1013.2
20260902180025 93 270 3.0 12.0 0.00 0.00 0.00 56 1013.3
20260902175501 93 291 3.0 12.0 0.00 0.00 0.00 55 1013.5
20260902175002 93 272 4.0 12.0 0.00 0.00 0.00 55 1013.5
20260902174002 91 268 4.0 9.0 0.00 0.00 0.00 58 1013.8
20260902172002 92 179 4.0 11.0 0.00 0.00 0.00 59 1014.1
20260902171516 92 271 4.0 11.0 0.00 0.00 0.00 60 1014.1
20260902170501 91 147 4.0 10.0 0.00 0.00 0.00 62 1014.2
20260902170025 91 225 3.0 10.0 0.00 0.00 0.00 63 1014.3
20260902165501 90 233 4.0 10.0 0.00 0.00 0.00 62 1014.3
20260902165002 90 278 4.0 10.0 0.00 0.00 0.00 63 1014.4
20260902164517 90 353 4.0 11.0 0.00 0.00 0.00 64 1014.3
20260902163024 88 268 3.0 10.0 0.00 0.00 0.00 69 1014.5
20260902162504 87 262 3.0 7.0 0.00 0.00 0.00 70 1014.5
20260902162002 87 231 3.0 11.0 0.00 0.00 0.00 70 1014.6
20260902161516 87 210 3.0 11.0 0.00 0.00 0.00 71 1014.7
20260902160501 87 214 3.0 9.0 0.00 0.00 0.00 71 1014.6
20260902160024 86 232 3.0 10.0 0.00 0.00 0.00 74 1014.6
20260902155501 85 241 3.0 10.0 0.00 0.00 0.00 75 1014.6
20260902155001 85 198 3.0 8.0 0.00 0.00 0.00 76 1014.6
20260902154516 85 260 3.0 10.0 0.00 0.00 0.00 77 1014.6
20260902154002 84 209 4.0 11.0 0.00 0.00 0.00 78 1014.5
20260902153501 84 207 4.0 11.0 0.00 0.00 0.00 78 1014.6
20260902153023 84 258 3.0 8.0 0.00 0.00 0.00 78 1014.5
20260902152501 84 216 3.0 8.0 0.00 0.00 0.00 79 1014.5
20260902152002 84 334 3.0 8.0 0.00 0.00 0.00 79 1014.4
20260902151515 83 272 3.0 9.0 0.00 0.00 0.00 81 1014.4
20260902151001 83 226 3.0 8.0 0.00 0.00 0.00 81 1014.5
20260902150501 82 236 3.0 7.0 0.00 0.00 0.00 81 1014.6
20260902150026 82 266 2.0 7.0 0.00 0.00 0.00 82 1014.6
20260902145501 82 288 2.0 8.0 0.00 0.00 0.00 82 1014.5
20260902145001 82 278 3.0 9.0 0.00 0.00 0.00 82 1014.6
20260902144002 82 244 3.0 7.0 0.00 0.00 0.00 82 1014.5
20260902143501 82 256 2.0 6.0 0.00 0.00 0.00 83 1014.5
20260902143027 82 262 2.0 6.0 0.00 0.00 0.00 83 1014.4
20260902142501 82 268 2.0 7.0 0.00 0.00 0.00 83 1014.4
20260902141516 81 220 2.0 5.0 0.00 0.00 0.00 83 1014.5
20260902141003 81 150 2.0 8.0 0.00 0.00 0.00 83 1014.5
20260902140501 81 223 1.0 6.0 0.00 0.00 0.00 84 1014.4
20260902140026 81 260 2.0 7.0 0.00 0.00 0.00 84 1014.4
20260902135501 81 235 2.0 7.0 0.00 0.00 0.00 84 1014.4
20260902135002 81 241 2.0 6.0 0.00 0.00 0.00 84 1014.4
20260902134517 81 133 2.0 7.0 0.00 0.00 0.00 84 1014.4
20260902134001 81 224 2.0 8.0 0.00 0.00 0.00 85 1014.4
20260902132501 80 264 2.0 6.0 0.00 0.00 0.00 85 1014.3
20260902132001 80 244 2.0 7.0 0.00 0.00 0.00 86 1014.2
20260902131515 80 175 2.0 7.0 0.00 0.00 0.00 86 1014.2
20260902130501 80 258 2.0 7.0 0.00 0.00 0.00 86 1014.0
20260902130023 80 248 2.0 7.0 0.00 0.00 0.00 86 1014.1
20260902125501 80 266 1.0 4.0 0.00 0.00 0.00 86 1014.0
20260902125002 80 229 1.0 7.0 0.00 0.00 0.00 87 1014.0
20260902124517 80 307 2.0 7.0 0.00 0.00 0.00 87 1013.9
20260902124001 80 160 1.0 5.0 0.00 0.00 0.00 87 1013.8
20260902123501 80 214 2.0 7.0 0.00 0.00 0.00 87 1013.6
20260902123027 80 190 2.0 7.0 0.00 0.00 0.00 87 1013.5
20260902122500 80 150 2.0 6.0 0.00 0.00 0.00 87 1013.2
20260902122002 80 266 2.0 6.0 0.00 0.00 0.00 87 1013.0
20260902121516 80 163 2.0 8.0 0.00 0.00 0.00 86 1012.9
20260902121002 80 199 2.0 8.0 0.00 0.00 0.00 86 1012.8
20260902120501 80 221 2.0 6.0 0.00 0.00 0.00 86 1012.7
20260902115501 80 267 2.0 8.0 0.00 0.00 0.00 86 1012.8
20260902115001 80 193 2.0 8.0 0.00 0.00 0.00 86 1012.8
20260902114516 80 224 2.0 8.0 0.00 0.00 0.00 86 1013.0
20260902114001 80 231 2.0 8.0 0.00 0.00 0.00 86 1012.9
20260902113500 80 280 2.0 5.0 0.00 0.00 0.00 86 1012.8
20260902113024 80 227 2.0 5.0 0.00 0.00 0.00 85 1012.9
20260902112002 80 231 2.0 7.0 0.00 0.00 0.00 85 1012.7
20260902110500 80 234 2.0 4.0 0.00 0.00 0.00 85 1012.7
20260902110024 80 263 2.0 4.0 0.00 0.00 0.00 85 1012.8
20260902105500 80 262 2.0 4.0 0.00 0.00 0.00 85 1012.8
20260902104515 80 243 2.0 5.0 0.00 0.00 0.00 84 1012.9
20260902104000 80 182 2.0 9.0 0.00 0.00 0.00 84 1012.9
20260902103459 80 278 2.0 9.0 0.00 0.00 0.00 84 1012.9
20260902103023 81 353 1.0 8.0 0.00 0.00 0.00 84 1012.9
20260902102459 81 240 2.0 8.0 0.00 0.00 0.00 84 1012.9
20260902101515 81 250 2.0 4.0 0.00 0.00 0.00 84 1012.9
20260902101001 81 226 2.0 4.0 0.00 0.00 0.00 84 1012.8
20260902100500 81 200 2.0 7.0 0.00 0.00 0.00 83 1012.8
20260902095500 81 217 3.0 9.0 0.00 0.00 0.00 83 1012.7
20260902094514 81 247 2.0 6.0 0.00 0.00 0.00 83 1012.8
20260902093027 81 215 2.0 5.0 0.00 0.00 0.00 82 1012.8
20260902092001 81 263 2.0 5.0 0.00 0.00 0.00 82 1012.7
20260902091514 81 274 2.0 5.0 0.00 0.00 0.00 82 1012.8
20260902091000 81 260 2.0 6.0 0.00 0.00 0.00 82 1012.8
20260902090459 81 264 2.0 8.0 0.00 0.00 0.00 81 1012.8
20260902090028 81 228 2.0 8.0 0.00 0.00 0.00 81 1012.7
20260902085500 81 229 2.0 5.0 0.00 0.00 0.00 81 1012.8
20260902084514 81 208 3.0 8.0 0.00 0.00 0.00 80 1012.7
20260902084001 81 243 3.0 9.0 0.00 0.00 0.00 80 1012.8
20260902083500 81 239 2.0 9.0 0.00 0.00 0.00 80 1012.8
20260902083029 81 259 2.0 6.0 0.00 0.00 0.00 79 1012.8
20260902082459 81 217 1.0 4.0 0.00 0.00 0.00 79 1012.9
20260902081001 81 247 1.0 5.0 0.00 0.00 0.00 77 1012.8
20260902080459 81 253 1.0 5.0 0.00 0.00 0.00 77 1012.8
20260902075458 81 251 1.0 4.0 0.00 0.00 0.00 76 1012.8
20260902075000 81 240 1.0 4.0 0.00 0.00 0.00 76 1012.9
20260902074000 80 353 1.0 3.0 0.00 0.00 0.00 76 1012.8
20260902073459 80 237 0.0 2.0 0.00 0.00 0.00 76 1012.9
20260902073022 80 243 0.0 2.0 0.00 0.00 0.00 76 1013.0
20260902072458 80 297 1.0 2.0 0.00 0.00 0.00 76 1013.0
20260902071514 80 218 0.0 3.0 0.00 0.00 0.00 76 1013.0
20260902071000 80 300 0.0 1.0 0.00 0.00 0.00 76 1013.0
20260902070459 80 300 0.0 1.0 0.00 0.00 0.00 76 1012.9
20260902070020 80 301 0.0 1.0 0.00 0.00 0.00 76 1012.9
20260902065459 80 306 0.0 1.0 0.00 0.00 0.00 75 1013.0
20260902065000 80 312 0.0 2.0 0.00 0.00 0.00 76 1012.9
20260902064514 80 312 0.0 2.0 0.00 0.00 0.00 75 1012.8
20260902064000 80 217 0.0 1.0 0.00 0.00 0.00 75 1012.9
20260902063500 80 217 0.0 1.0 0.00 0.00 0.00 75 1012.9
20260902063024 80 217 0.0 1.0 0.00 0.00 0.00 75 1012.8
20260902062458 80 217 0.0 1.0 0.00 0.00 0.00 75 1012.8
20260902062003 80 217 0.0 3.0 0.00 0.00 0.00 75 1012.7
20260902061514 80 217 0.0 3.0 0.00 0.00 0.00 74 1012.6
20260902061000 80 243 1.0 3.0 0.00 0.00 0.00 75 1012.6
20260902060459 80 180 1.0 3.0 0.00 0.00 0.00 75 1012.5
20260902060022 80 223 0.0 3.0 0.00 0.00 0.00 75 1012.5
20260902055459 80 243 0.0 2.0 0.00 0.00 0.00 75 1012.5
20260902055000 80 275 0.0 2.0 0.00 0.00 0.00 76 1012.7
20260902054513 80 269 0.0 1.0 0.00 0.00 0.00 76 1012.7
20260902054000 80 249 0.0 1.0 0.00 0.00 0.00 76 1012.6
20260902053459 80 249 0.0 4.0 0.00 0.00 0.00 75 1012.5
20260902052458 80 237 0.0 2.0 0.00 0.00 0.00 75 1012.6
20260902051959 81 243 0.0 2.0 0.00 0.00 0.00 75 1012.7
20260902051514 80 243 1.0 2.0 0.00 0.00 0.00 75 1012.8
20260902051000 81 233 0.0 3.0 0.00 0.00 0.00 75 1012.8
20260902050459 81 262 1.0 3.0 0.00 0.00 0.00 75 1012.8
20260902050024 81 236 1.0 4.0 0.00 0.00 0.00 75 1012.9
20260902045504 81 241 1.0 4.0 0.00 0.00 0.00 76 1012.9
20260902045005 81 241 1.0 3.0 0.00 0.00 0.00 76 1013.0
20260902044519 81 230 1.0 3.0 0.00 0.00 0.00 76 1013.0
20260902044005 80 234 0.0 3.0 0.00 0.00 0.00 76 1013.0
20260902043503 81 236 0.0 2.0 0.00 0.00 0.00 76 1013.0
20260902043030 81 236 0.0 2.0 0.00 0.00 0.00 76 1013.1
20260902042503 81 236 0.0 2.0 0.00 0.00 0.00 75 1013.1
20260902042005 81 238 0.0 2.0 0.00 0.00 0.00 75 1013.1
20260902041519 81 238 0.0 3.0 0.00 0.00 0.00 75 1013.1
20260902041006 81 223 0.0 3.0 0.00 0.00 0.00 75 1013.1
20260902040504 81 247 0.0 2.0 0.00 0.00 0.00 74 1013.1
20260902040029 81 247 1.0 3.0 0.00 0.00 0.00 74 1013.1
20260902035004 81 239 0.0 2.0 0.00 0.00 0.00 75 1013.2
20260902034005 81 320 0.0 1.0 0.00 0.00 0.00 75 1013.2
20260902033504 81 320 0.0 1.0 0.00 0.00 0.00 74 1013.2
20260902032504 81 320 0.0 1.0 0.00 0.00 0.00 74 1013.2
20260902032005 81 320 0.0 1.0 0.00 0.00 0.00 74 1013.2
20260902031006 81 320 0.0 1.0 0.00 0.00 0.00 73 1013.0
20260902030504 81 320 0.0 1.0 0.00 0.00 0.00 73 1012.8
20260902030027 81 320 0.0 2.0 0.00 0.00 0.00 73 1012.8
20260902025503 81 320 0.0 2.0 0.00 0.00 0.00 73 1012.8
20260902025005 81 283 0.0 1.0 0.00 0.00 0.00 74 1012.8
20260902024519 81 283 0.0 2.0 0.00 0.00 0.00 74 1012.7
20260902024005 81 308 0.0 0.0 0.00 0.00 0.00 73 1012.6
20260902023504 82 308 0.0 0.0 0.00 0.00 0.00 73 1012.6
20260902023024 82 308 0.0 1.0 0.00 0.00 0.00 73 1012.5
20260902022504 82 308 0.0 1.0 0.00 0.00 0.00 73 1012.4
20260902022006 82 308 0.0 1.0 0.00 0.00 0.00 73 1012.3
20260902021520 82 308 0.0 1.0 0.00 0.00 0.00 73 1012.3
20260902021005 82 308 0.0 1.0 0.00 0.00 0.00 73 1012.4
20260902020503 82 308 0.0 1.0 0.00 0.00 0.00 73 1012.3
20260902020028 82 308 0.0 1.0 0.00 0.00 0.00 73 1012.0
20260902015504 82 308 0.0 1.0 0.00 0.00 0.00 73 1011.9
20260902015005 82 308 0.0 1.0 0.00 0.00 0.00 72 1011.9
20260902014519 82 308 0.0 1.0 0.00 0.00 0.00 72 1011.8
20260902014005 82 308 0.0 1.0 0.00 0.00 0.00 72 1011.7
20260902013503 82 308 1.0 2.0 0.00 0.00 0.00 72 1011.6
20260902012504 82 30 1.0 2.0 0.00 0.00 0.00 72 1011.6
20260902012004 82 348 1.0 2.0 0.00 0.00 0.00 71 1011.6